Flag for Mongolia Weather past 2 weeks in Ulaanbaatar, Mongolia

Now
55 °F

Passing clouds.


Feels Like: 54 °F
Forecast: 48 / 71 °F
Wind: 6 mph from Northwest

Location: Ulan-Bator

Current Time: Aug 5, 2015 at 1:11:09 AM

Latest Report: Aug 5, 2015 at 12:30 AM


Visibility: N/A

Pressure: 29.83 "Hg (25.55 "Hg at 1298m altitude)

Humidity: 88%

Dew point: 52 °F

Location of UlaanbaatarLocation

Historic Weather in Ulaanbaatar — Graph

°F

Ulaanbaatar temperature yesterday

Maximum temperature yesterday: 64 °F (at 1:30 PM)
Minimum temperature yesterday: 54 °F (at 2:30 AM)
Average temperature yesterday: 59 °F

Past Weeks' High & Low Weather Summary

 TemperatureHumidityPressure
High86 °F (Jul 23, 4:30 PM)94% (Jul 21, 5:00 AM)30.07 "Hg (Jul 21, 5:00 AM)
Low45 °F (Aug 3, 6:30 AM)21% (Jul 26, 6:30 PM)29.65 "Hg (Jul 27, 5:00 PM)
Average64 °F64%29.84 "Hg
* Reported Midnight between Jul 20 and Jul 21 — Midnight between Aug 4 and Aug 5, Ulaanbaatar, Weather by CustomWeather, © 2015

Note: Actual official high and low records may vary slightly from our data, if they occured in-between our weather recording intervals... More about our weather records

Advertising

Ulaanbaatar weather history for previous 24 hours

 ConditionsComfort  
Time TempWeatherWind HumidityBarometerVisibility
12:00 AM
Wed, Aug 5
57 °FPassing clouds.6 mph77%29.80 "HgN/A
11:30 PM
Tue, Aug 4
57 °FPassing clouds.6 mph77%29.80 "HgN/A
11:00 PM57 °FPassing clouds.8 mph82%29.83 "HgN/A
10:30 PM55 °FPassing clouds.3 mph82%29.83 "HgN/A
10:00 PM57 °FScattered clouds.6 mph82%29.80 "HgN/A
9:30 PM57 °FScattered clouds.10 mph82%29.80 "HgN/A
9:00 PM59 °FPartly sunny.8 mph77%29.80 "HgN/A
8:30 PM59 °FPartly sunny.10 mph77%29.80 "HgN/A
8:00 PM59 °FPartly sunny.13 mph77%29.77 "HgN/A
7:30 PM59 °FScattered clouds.15 mph77%29.77 "HgN/A
7:00 PM61 °FScattered clouds.6 mph63%29.77 "HgN/A
6:30 PM61 °FScattered clouds.8 mph63%29.77 "HgN/A
6:00 PM61 °FScattered clouds.10 mph68%29.74 "HgN/A
5:30 PM59 °FSprinkles. Scattered clouds.8 mph72%29.77 "HgN/A
5:00 PM57 °FRain showers. Scattered clouds.8 mph77%29.77 "HgN/A
4:30 PM59 °FSprinkles. Scattered clouds.10 mph77%29.77 "HgN/A
4:00 PM59 °FScattered clouds.10 mph77%29.77 "HgN/A
3:30 PM61 °FThunderstorms. Scattered clouds.15 mph72%29.74 "HgN/A
3:00 PM61 °FSprinkles. Scattered clouds.10 mph72%29.74 "HgN/A
2:30 PM61 °FPartly sunny.13 mph68%29.74 "HgN/A
2:00 PM64 °FPartly sunny.3 mph68%29.74 "HgN/A
1:30 PM64 °FPartly sunny.3 mph64%29.74 "HgN/A
1:00 PM63 °FPartly sunny.3 mph64%29.74 "HgN/A
12:30 PM63 °FPartly sunny.6 mph64%29.74 "HgN/A
12:00 PM63 °FPartly sunny.3 mph59%29.74 "HgN/A
11:30 AM61 °FScattered clouds.3 mph72%29.74 "HgN/A
11:00 AM61 °FScattered clouds.3 mph72%29.74 "HgN/A
10:30 AM59 °FScattered clouds.8 mph72%29.74 "HgN/A
10:00 AM59 °FPartly sunny.6 mph72%29.74 "HgN/A
9:30 AM59 °FPartly sunny.8 mph72%29.71 "HgN/A
9:00 AM57 °FPartly sunny.10 mph82%29.71 "HgN/A
8:30 AM57 °FPartly sunny.10 mph77%29.71 "HgN/A
8:00 AM57 °FScattered clouds.6 mph77%29.71 "HgN/A
7:30 AM57 °FSprinkles. Passing clouds.8 mph82%29.71 "HgN/A
6:30 AM57 °FThunderstorms. Passing clouds.1 mph77%29.71 "HgN/A
6:00 AM57 °FSprinkles. Passing clouds.6 mph82%29.71 "HgN/A
5:30 AM55 °FPassing clouds.No wind77%29.71 "HgN/A
5:00 AM55 °FPassing clouds.3 mph82%29.71 "HgN/A
4:30 AM57 °FSprinkles. Passing clouds.No wind72%29.71 "HgN/A
4:00 AM57 °FPassing clouds.3 mph72%29.71 "HgN/A
3:30 AM59 °FPassing clouds.1 mph68%29.71 "HgN/A
3:00 AM55 °FPassing clouds.No wind77%29.71 "HgN/A
2:30 AM54 °FPassing clouds.1 mph77%29.68 "HgN/A
2:00 AM57 °FPassing clouds.1 mph67%29.68 "HgN/A
1:30 AM57 °FPassing clouds.1 mph63%29.68 "HgN/A
1:00 AM55 °FPassing clouds.6 mph72%29.68 "HgN/A
Weather by CustomWeather, © 2015

See weather overviewHow to use our weather pages